Weather History for Rickenbacker, OH

Change the Weather History Date:

Thursday, February 21, 2013

  Actual Average Record
Temperature  
Mean Temperature 26 °F -  
Max Temperature 30 °F 42 °F 71 °F (1997)
Min Temperature 23 °F 26 °F 0 °F (2008)
Degree Days  
Heating Degree Days 38    
Moisture  
Dew Point 15 °F    
Average Humidity 62    
Maximum Humidity 72    
Minimum Humidity 53    
Precipitation  
Precipitation 0.00 in - - ()
Sea Level Pressure  
Sea Level Pressure 30.27 in    
Wind  
Wind Speed 8 mph (NNE)    
Max Wind Speed 15 mph    
Max Gust Speed 22 mph    
Visibility 10 miles    
Events Snow    
Averages and records for this station are not official NWS values.
T = Trace of Precipitation, MM = Missing Value Source: NWS Daily Summary

Daily Weather History Graph

Daily Weather History Graph

Search for Another Location

Airport:

Trip Planner

Search our weather history database for the weather conditions in past years. The results will help you decide how hot, cold, wet, or windy it might be!

Date:

Astronomy

Feb. 21, 2013 Rise Set
Actual Time 7:16 AM EST 6:15 PM EST
Civil Twilight 6:48 AM EST 6:42 PM EST
Nautical Twilight 6:17 AM EST 7:13 PM EST
Astronomical Twilight 5:46 AM EST 7:45 PM EST
Moon 2:29 PM EST (2/21) 4:19 AM EST (2/21)
Length of Visible Light 11h 53m
Length of Day
10h 59m
Waxing Gibbous, 83% of the Moon is Illuminated
Feb 21
Waxing Gibbous
Feb 25
Full
Mar 4
Last Quarter
Mar 11
New
Mar 19
First Quarter

Hourly Weather History & Observations

Time (EST) Temp. Windchill Dew Point Humidity Pressure Visibility Wind Dir Wind Speed Gust Speed Precip Events Conditions
12:15 AM 23.5 °F 14.5 °F 14.7 °F 69% 30.26 in 10.0 mi WNW 8.1 mph - N/A Snow Light Snow
12:35 AM 23.4 °F 13.5 °F 15.1 °F 71% 30.26 in 10.0 mi West 9.2 mph - N/A Snow Light Snow
12:55 AM 23.5 °F 14.5 °F 15.4 °F 71% 30.26 in 10.0 mi West 8.1 mph - N/A Snow Light Snow
1:15 AM 23.5 °F 14.5 °F 15.6 °F 72% 30.26 in 10.0 mi West 8.1 mph - N/A   Overcast
1:35 AM 23.5 °F 14.5 °F 15.8 °F 72% 30.26 in 10.0 mi West 8.1 mph - N/A   Overcast
1:55 AM 23.7 °F 14.0 °F 15.8 °F 72% 30.27 in 10.0 mi West 9.2 mph - N/A Snow Light Snow
2:15 AM 23.7 °F 16.6 °F 15.8 °F 72% 30.26 in 10.0 mi WNW 5.8 mph - N/A Snow Light Snow
2:35 AM 23.9 °F 15.8 °F 15.8 °F 71% 30.26 in 10.0 mi WNW 6.9 mph - N/A   Overcast
2:55 AM 24.1 °F 13.7 °F 15.4 °F 70% 30.26 in 10.0 mi NW 10.4 mph 16.1 mph N/A   Overcast
3:15 AM 24.4 °F 17.5 °F 14.9 °F 67% 30.27 in 10.0 mi WNW 5.8 mph - N/A   Overcast
3:35 AM 24.4 °F 14.2 °F 15.1 °F 68% 30.27 in 10.0 mi NW 10.4 mph - N/A   Overcast
3:55 AM 24.4 °F 14.2 °F 14.7 °F 67% 30.27 in 10.0 mi NNW 10.4 mph - N/A   Overcast
4:15 AM 24.1 °F 13.1 °F 12.9 °F 62% 30.27 in 10.0 mi North 11.5 mph - N/A   Overcast
4:35 AM 23.9 °F 13.5 °F 12.2 °F 61% 30.27 in 10.0 mi NNW 10.4 mph - N/A   Overcast
4:55 AM 23.5 °F 13.0 °F 11.7 °F 61% 30.28 in 10.0 mi NW 10.4 mph - N/A   Overcast
5:15 AM 23.5 °F 14.5 °F 11.5 °F 60% 30.28 in 10.0 mi NW 8.1 mph - N/A   Overcast
5:35 AM 23.5 °F 14.5 °F 11.7 °F 61% 30.28 in 10.0 mi NW 8.1 mph - N/A   Overcast
5:55 AM 23.5 °F 13.7 °F 11.5 °F 60% 30.29 in 10.0 mi NW 9.2 mph - N/A   Overcast
6:15 AM 23.5 °F 15.4 °F 11.8 °F 61% 30.30 in 10.0 mi NNW 6.9 mph - N/A   Overcast
7:15 AM 23.5 °F 15.4 °F 12.4 °F 62% 30.31 in 10.0 mi NNW 6.9 mph - N/A   Overcast
7:35 AM 23.5 °F 15.4 °F 12.6 °F 63% 30.31 in 10.0 mi NNW 6.9 mph - N/A   Overcast
7:55 AM 23.7 °F 19.3 °F 12.9 °F 63% 30.32 in 10.0 mi NNW 3.5 mph - N/A   Overcast
8:15 AM 23.9 °F 16.8 °F 13.3 °F 64% 30.34 in 10.0 mi NNW 5.8 mph - N/A   Overcast
8:35 AM 24.1 °F 19.7 °F 13.3 °F 63% 30.34 in 10.0 mi NW 3.5 mph - N/A   Overcast
8:55 AM 24.4 °F 18.6 °F 13.5 °F 63% 30.33 in 10.0 mi NW 4.6 mph - N/A   Overcast
9:15 AM 24.6 °F 20.3 °F 13.6 °F 63% 30.34 in 10.0 mi NW 3.5 mph - N/A   Overcast
9:35 AM 25.0 °F 19.3 °F 14.0 °F 63% 30.34 in 10.0 mi NNW 4.6 mph - N/A   Overcast
9:55 AM 25.2 °F - 13.8 °F 62% 30.35 in 10.0 mi Calm Calm - N/A   Overcast
10:15 AM 25.5 °F 21.3 °F 13.8 °F 61% 30.35 in 10.0 mi NW 3.5 mph - N/A   Overcast
10:35 AM 25.5 °F - 14.0 °F 62% 30.34 in 10.0 mi Calm Calm - N/A   Overcast
10:55 AM 25.9 °F - 14.2 °F 61% 30.34 in 10.0 mi Calm Calm - N/A   Overcast
11:15 AM 26.2 °F 22.1 °F 14.0 °F 60% 30.34 in 10.0 mi North 3.5 mph - N/A   Overcast
11:35 AM 26.4 °F - 14.2 °F 60% 30.34 in 10.0 mi Calm Calm - N/A   Overcast
11:55 AM 26.8 °F 22.8 °F 14.4 °F 60% 30.34 in 10.0 mi ENE 3.5 mph - N/A   Overcast
12:15 PM 27.3 °F - 14.7 °F 59% 30.32 in 10.0 mi Calm Calm - N/A   Overcast
12:35 PM 27.5 °F - 14.4 °F 58% 30.32 in 10.0 mi Calm Calm - N/A   Overcast
12:55 PM 27.9 °F 22.6 °F 14.5 °F 57% 30.32 in 10.0 mi East 4.6 mph - N/A   Overcast
1:15 PM 28.6 °F 22.4 °F 15.1 °F 57% 30.30 in 10.0 mi ENE 5.8 mph - N/A   Overcast
1:35 PM 29.7 °F 23.7 °F 14.9 °F 54% 30.29 in 10.0 mi NNE 5.8 mph - N/A   Overcast
1:55 PM 29.7 °F 22.8 °F 14.9 °F 54% 30.28 in 10.0 mi NE 6.9 mph - N/A   Overcast
2:15 PM 30.2 °F 21.3 °F 15.1 °F 53% 30.26 in 10.0 mi NE 10.4 mph - N/A   Overcast
2:35 PM 30.4 °F 22.2 °F 15.6 °F 54% 30.26 in 10.0 mi ENE 9.2 mph - N/A   Mostly Cloudy
2:55 PM 30.4 °F 22.2 °F 16.0 °F 55% 30.23 in 10.0 mi NE 9.2 mph - N/A   Mostly Cloudy
3:15 PM 30.9 °F 22.2 °F 16.2 °F 54% 30.25 in 10.0 mi ENE 10.4 mph - N/A   Mostly Cloudy
3:35 PM 30.6 °F 24.7 °F 16.0 °F 55% 30.27 in 10.0 mi ENE 5.8 mph - N/A   Overcast
3:55 PM 29.8 °F 20.9 °F 16.3 °F 57% 30.26 in 10.0 mi ESE 10.4 mph - N/A   Overcast
4:15 PM 29.3 °F 20.8 °F 17.1 °F 60% 30.27 in 10.0 mi East 9.2 mph - N/A   Overcast
4:35 PM 29.3 °F 20.8 °F 16.7 °F 59% 30.26 in 10.0 mi East 9.2 mph - N/A   Overcast
4:55 PM 29.1 °F 21.3 °F 16.7 °F 60% 30.26 in 10.0 mi East 8.1 mph - N/A   Mostly Cloudy
5:15 PM 29.1 °F 21.3 °F 16.9 °F 60% 30.26 in 10.0 mi ENE 8.1 mph - N/A   Scattered Clouds
5:35 PM 29.1 °F 23.0 °F 16.9 °F 60% 30.26 in 10.0 mi ENE 5.8 mph - N/A   Clear
5:55 PM 29.1 °F 23.0 °F 17.1 °F 61% 30.27 in 10.0 mi ENE 5.8 mph - N/A   Clear
6:15 PM 28.8 °F 23.7 °F 17.2 °F 62% 30.26 in 10.0 mi ENE 4.6 mph - N/A   Clear
6:35 PM 28.4 °F 22.2 °F 17.8 °F 64% 30.26 in 10.0 mi NE 5.8 mph - N/A   Clear
6:55 PM 28.9 °F 19.2 °F 18.3 °F 65% 30.25 in 10.0 mi ENE 11.5 mph - N/A   Clear
7:15 PM 29.3 °F 18.6 °F 18.0 °F 63% 30.25 in 10.0 mi ENE 13.8 mph - N/A   Clear
7:35 PM 29.1 °F 19.4 °F 17.6 °F 62% 30.25 in 10.0 mi ENE 11.5 mph - N/A   Clear
7:55 PM 28.9 °F 18.6 °F 17.4 °F 62% 30.23 in 10.0 mi ENE 12.7 mph - N/A   Clear
8:15 PM 28.8 °F 17.5 °F 17.6 °F 63% 30.22 in 10.0 mi ENE 15.0 mph 19.6 mph N/A   Clear
8:35 PM 28.8 °F 19.5 °F 17.6 °F 63% 30.22 in 10.0 mi ENE 10.4 mph 17.3 mph N/A   Clear
8:55 PM 28.4 °F 18.5 °F 17.8 °F 64% 30.22 in 10.0 mi ENE 11.5 mph - N/A   Clear
9:15 PM 28.2 °F 17.2 °F 17.4 °F 64% 30.21 in 10.0 mi ENE 13.8 mph 21.9 mph N/A   Clear
9:35 PM 28.2 °F 18.3 °F 17.1 °F 63% 30.22 in 10.0 mi ENE 11.5 mph - N/A   Clear
9:55 PM 28.0 °F 20.0 °F 16.9 °F 63% 30.22 in 10.0 mi East 8.1 mph - N/A   Clear
10:15 PM 28.2 °F 22.0 °F 16.7 °F 62% 30.23 in 10.0 mi East 5.8 mph - N/A   Clear
10:35 PM 28.2 °F 21.0 °F 17.1 °F 63% 30.22 in 10.0 mi East 6.9 mph - N/A   Clear
10:55 PM 28.4 °F 20.4 °F 17.2 °F 63% 30.22 in 10.0 mi East 8.1 mph - N/A   Scattered Clouds
11:15 PM 28.4 °F 22.2 °F 17.2 °F 63% 30.22 in 10.0 mi ESE 5.8 mph - N/A   Scattered Clouds
11:35 PM 28.6 °F 19.9 °F 17.4 °F 63% 30.20 in 10.0 mi East 9.2 mph - N/A   Overcast
11:55 PM 28.8 °F 20.9 °F 17.8 °F 64% 30.19 in 10.0 mi East 8.1 mph - N/A   Overcast